AirNav   Air Wisconsin Up To $57,000 Bonus
 
 1495 users online  

33NH Bear Hill Heliport
Henniker, New Hampshire, USA

GOING TO HENNIKER?


FAA INFORMATION EFFECTIVE 31 DECEMBER 2020

Location

FAA Identifier: 33NH
Lat/Long: 43-08-39.9000N 071-51-13.0000W
43-08.665000N 071-51.216667W
43.1444167,-71.8536111
(estimated)
Elevation: 864 ft. / 263 m (estimated)
From city: 3 miles SSW of HENNIKER, NH
Time zone: UTC -5 (UTC -4 during Daylight Saving Time)
Zip code: 03242

Heliport Operations

Heliport use: Private use. Permission required prior to landing
Activation date: 12/2015
Control tower: no
ARTCC: BOSTON CENTER
FSS: BANGOR FLIGHT SERVICE STATION
Attendance: UNATNDD
Segmented circle: no

Heliport Communications

WX ASOS at CON (16 nm E): 132.325 (603-224-6558)

Nearby radio navigation aids

VOR radial/distance  VOR name  Freq  Var
CONr265/13.0CONCORD VOR/DME112.9015W
MHTr323/26.9MANCHESTER VOR/DME114.4015W
EENr056/28.5KEENE VORTAC109.4014W
LEBr169/35.7LEBANON VOR/DME113.7015W
GDMr028/37.0GARDNER VOR/DME110.6014W

 
NDB name  Hdg/Dist  Freq  Var  ID
CLAREMONT137/26.323316WCNH -.-. -. ....
HANOVER172/36.327615WLAH .-.. .- ....

Heliport Services

Runway Information

Helipad H1

Dimensions: 24 x 24 ft. / 7 x 7 m
Surface: turf
Traffic pattern: leftleft

Heliport Ownership and Management from official FAA records

Ownership: Privately-owned
Owner: DENNIS ROBERTS
408 BEAR HILL ROAD
HENNIKER, NH 03242
Phone 603-662-5600
Manager: DENNIS ROBERTS
408 BEAR HILL ROAD
HENNIKER, NH 03242
Phone 603-662-5600

Additional Remarks

FOR CD CTC BOSTON APCH AT 603-594-5551.

Instrument Procedures

There are no published instrument procedures at 33NH.

Some nearby airports with instrument procedures:

KCON - Concord Municipal Airport (16 nm E)
2B3 - Parlin Field Airport (21 nm NW)
KAFN - Jaffrey/Silver Ranch Airport (21 nm S)
KMHT - Manchester Airport (22 nm SE)
KEEN - Dillant-Hopkins Airport (24 nm SW)
 
Loc | Ops | Rwys | IFR | FBO | Links
Com | Nav | Svcs | Stats | Notes
Aerial photo
No photo
 
Airport distance calculator
Flying to Bear Hill Heliport? Find the distance to fly.

From to 33NH

Sunrise and sunset
Times for 15-Jan-2021
 Local
(UTC-5)
 Zulu
(UTC)
Morning civil twilight06:4611:46
Sunrise07:1712:17
Sunset16:3621:36
Evening civil twilight17:0822:08

Current date and time
Zulu (UTC)  15-Jan-2021 18:37:05
Local (UTC-5)  15-Jan-2021 13:37:05
 
METAR
KCON 
16nm E 
151751Z AUTO 15008KT 10SM CLR 06/M05 A3003 RMK AO2 SLP174 T00611050 10061 21028 58018
KAFN 
22nm S 
151752Z AUTO VRB06KT 10SM FEW021 03/M02 A3000 RMK AO2 SLP173 T00281022 10033 21039 58016
KMHT 
22nm SE 
151753Z 11008KT 10SM FEW045 BKN250 07/M04 A3003 RMK AO2 SLP185 T00671044 10067 20000 58016
KEEN 
24nm SW 
151756Z AUTO 00000KT 9SM OVC027 03/M02 A3002 RMK AO2 SLP176 T00281017 10039 21033 58019 $
KASH 
27nm SE 
151756Z 09008KT 10SM FEW035 06/M03 A3004 RMK AO2 SLP179 6//// T00611033 10061 20006 58017
KVSF 
31nm NW 
151754Z AUTO 00000KT 8SM OVC024 02/M03 A3003 RMK AO2 SLP175 T00171028 10017 21033 58017
TAF
KCON 
16nm E 
151742Z 1518/1618 VRB04KT P6SM BKN200 FM160200 07003KT P6SM BKN025 FM160800 06007KT 2SM -SN BR OVC012 FM161200 08009G16KT 2SM RA BR OVC003
NOTAMs
Click for the latest NOTAMs
NOTAMs are issued by the DoD/FAA and will open in a separate window not controlled by AirNav.

 

 
 

Would you like to see your business listed on this page?

 If your business provides an interesting product or service to pilots, flight crews, aircraft, or users of the Bear Hill Heliport, you should consider listing it here.  To start the listing process, click on the button below
 
Add a business
 

Other Pages about Bear Hill Heliport

Update a link
 
Copyright © AirNav, LLC. All rights reserved. Privacy Policy  Contact